Location: Couloutre
(47.4081°N, 3.2259°E)
Time: 18:57:19
(UTC+00:00)

Meteor 1-20 Rocket - Pass Details

Date: 27 February 2020
Orbit: 820 x 891 km, 81.2° (Epoch: 05 April)

Event Time Altitude Azimuth Distance (km) Brightness Sun altitude
Rises 18:13:01 0° 175° (S) 3,344 7.3 -8.3°
Reaches altitude 10° 18:15:25 10° 171° (S) 2,421 6.5 -8.8°
Maximum altitude 18:20:44 55° 95° (E) 1,001 4.3 -9.7°
Drops below altitude 10° 18:26:11 10° 19° (NNE) 2,475 6.4 -10.6°
Sets 18:28:40 0° 15° (NNE) 3,426 7.2 -11.0°
